"Pseudo-MPEC" for P10ODfl

Created 2019 Jun 15 19:08:07 UT using Find_Orb

Click here for an explanation of pseudo-MPECs

 
 Astrometry: 
     P10ODfl  C2019 05 292A%FEvO*9gm%1etm.6=xXcgmgDAstrometrykG]#hcXhbT=Fn+9sF51
     P10ODfl  C2019 05 29Xn/g^'eD-/GN-luEp=b(+J\#p*.cX$Ahbdo(Zm5D:=Q-lPW/8_nbF51
     P10ODfl  C2019 05 29uq2Yu8^qLY\uahP:]mFj_vGredacted;H5`=w[hd;H_S`0q2jSa+F51
     P10ODfl  C2019 06 01J)\dfO0Vi-W7v=.sSw7nywclickH_asKQ'2]Qoso\ZlkAJ]=AkjtF51
     P10ODfl  C2019 06 01B(CAYkZ@+LEq/Pg\F#^oPGs3;X.i!62voWW6vuh%L/ar2ER'OSUbF51
     P10ODfl  C2019 06 01qpu%9vLe7]UgTqcBv5Q]ac]heremD2FyO=IJvclCXZdgH_e:5TkMF51
     P10ODfl  C2019 06 01;.0.Rv.,%%U)!r)n;dPNGxF`c:v=+I2m3tE/\+iaarYVdO@j%HlWF51
     P10ODfl  C2019 06 02HRtbNkGQW:dQ9N3E=N,5jfor?EUHey'3k^5D2wr#DJZ8heRxw3]#F51
     P10ODfl  C2019 06 02qVHL%hK,U=EkaWBY[g]oYL[1B3b0:E315][#bAY%@J@xlT337\m=F51
     P10ODfl  C2019 06 02=X:+AJE@70vLGW*/Scisg/K3c8!UuHLlfw!jvB[,bSPl=]/,0Po6F51
     P10ODfl  C2019 06 02c3NBIfexplanationnG5mH%jDav=#*GoG*$-nTV*qiY61\VZR#oFF51
     P10ODfl  C2019 06 06t6J5fA8phaqL?XAM5KEX^5DAkXMIMsO!cSkPu)F=ErjdPe8?j7RO711
     P10ODfl  C2019 06 06LPJq.w@[qI\Z#M0R11I0)9t3XfSI#_x)5H!CyA$pk:+HBo-#=cqk711
     P10ODfl IC2019 06 06QOX^x5CP?Xx@!R;YH,s-.o#b]f?!]1R2C6eX3;wknqFF3YnsRV(Y711

Station data:
(711) McDonald Observatory, Fort Davis  (N30.671481 W104.021500)  US/Texas.
   0.76-m f/3.0 reflector.
(F51) Pan-STARRS 1, Haleakala  (N20.707235 W156.255910)  US/Hawaii.
   Observers N. Primak, A. Schultz, S. Watters, J. Thiel, T. Goggia. Measurer
   PS1 Science Consortium. 1.8-m Ritchey-Chrétien + CCD.

Orbital elements:  P10ODfl
   Perihelion 2024 May 27.989771 +/- 1013 TT = 23:45:16 (JD 2460458.489771)
Epoch 2019 Jun  6.0 TT = JDT 2458640.5   Ju: 0.1756           AutoNEOCP
M 211.64596049 +/- 70               (J2000 ecliptic)
n   0.08160334 +/- 0.00156          Peri.  205.36812 +/- 15
a   5.26418029 +/- 0.0669           Node   265.54024 +/- 0.29
e   0.0681107 +/- 0.0291            Incl.   27.96611 +/- 0.10
P  12.08                   H 14.9   G  0.15   U  8.9  
q 4.90563307 +/- 0.206    Q 5.62272751 +/- 0.109
From 14 observations 2019 May 29-June 6; mean residual 0".10
Residuals in arcseconds: 
190529 F51  .10+  .05-    190601 F51  .05+  .04+    190602 F51  .07-  .00     
190529 F51  .06+  .13-    190601 F51  .05+  .04+    190606 711  .22+  .09-    
190529 F51  .15-  .17+    190602 F51  .08+  .07-    190606 711  .05-  .06-    
190601 F51  .10-  .01+    190602 F51  .02+  .07+    190606 711  .17-  .16+    
190601 F51  .09-  .02-    190602 F51  .06+  .08-    

Ephemerides (geocentric):
Date (UTC) HH   RA              Dec         delta   r     elong  mag " sig PA
---- -- -- --  -------------   -----------  ------ ------ -----  --- ---- ---
2019 06 15 19  21 20 01.281   +10 24 32.50  5.0619 5.5732 115.4 22.8 2.74  87
2019 06 15 20  21 20 00.860   +10 24 44.47  5.0614 5.5732 115.4 22.8 2.76  87
2019 06 15 21  21 20 00.437   +10 24 56.43  5.0608 5.5732 115.4 22.8 2.77  87
2019 06 15 22  21 20 00.014   +10 25 08.38  5.0603 5.5732 115.5 22.8 2.79  87
2019 06 15 23  21 19 59.589   +10 25 20.32  5.0598 5.5732 115.5 22.8 2.81  87
2019 06 16 00  21 19 59.163   +10 25 32.26  5.0593 5.5732 115.5 22.8 2.83  87
2019 06 16 01  21 19 58.736   +10 25 44.19  5.0587 5.5732 115.6 22.8 2.85  87
2019 06 16 02  21 19 58.308   +10 25 56.11  5.0582 5.5732 115.6 22.8 2.87  87
2019 06 16 03  21 19 57.879   +10 26 08.03  5.0577 5.5731 115.7 22.8 2.89  87
2019 06 16 04  21 19 57.448   +10 26 19.94  5.0572 5.5731 115.7 22.8 2.91  87
2019 06 16 05  21 19 57.017   +10 26 31.84  5.0566 5.5731 115.7 22.8 2.93  87
2019 06 16 06  21 19 56.584   +10 26 43.73  5.0561 5.5731 115.8 22.8 2.95  87
2019 06 16 07  21 19 56.151   +10 26 55.62  5.0556 5.5731 115.8 22.8 2.97  87
2019 06 16 08  21 19 55.716   +10 27 07.50  5.0551 5.5731 115.8 22.7 2.99  87
2019 06 16 09  21 19 55.280   +10 27 19.37  5.0545 5.5731 115.9 22.7 3.01  87
2019 06 16 10  21 19 54.842   +10 27 31.23  5.0540 5.5731 115.9 22.7 3.03  87
2019 06 16 11  21 19 54.404   +10 27 43.09  5.0535 5.5731 115.9 22.7 3.05  87
2019 06 16 12  21 19 53.965   +10 27 54.94  5.0530 5.5731 116.0 22.7 3.07  87
2019 06 16 13  21 19 53.524   +10 28 06.78  5.0524 5.5730 116.0 22.7 3.09  87
2019 06 16 14  21 19 53.083   +10 28 18.62  5.0519 5.5730 116.0 22.7 3.11  87
2019 06 16 15  21 19 52.640   +10 28 30.44  5.0514 5.5730 116.1 22.7 3.13  87
2019 06 16 16  21 19 52.196   +10 28 42.26  5.0509 5.5730 116.1 22.7 3.15  87
2019 06 16 17  21 19 51.751   +10 28 54.08  5.0503 5.5730 116.1 22.7 3.17  87
2019 06 16 18  21 19 51.304   +10 29 05.88  5.0498 5.5730 116.2 22.7 3.19  87
2019 06 16 19  21 19 50.857   +10 29 17.68  5.0493 5.5730 116.2 22.7 3.21  87
2019 06 16 20  21 19 50.409   +10 29 29.47  5.0488 5.5730 116.2 22.7 3.23  87
2019 06 16 21  21 19 49.959   +10 29 41.26  5.0482 5.5730 116.3 22.7 3.25  87
2019 06 16 22  21 19 49.508   +10 29 53.03  5.0477 5.5730 116.3 22.7 3.27  87
2019 06 16 23  21 19 49.056   +10 30 04.80  5.0472 5.5729 116.4 22.7 3.29  87
2019 06 17 00  21 19 48.603   +10 30 16.56  5.0467 5.5729 116.4 22.7 3.31  87
2019 06 17 01  21 19 48.149   +10 30 28.32  5.0461 5.5729 116.4 22.7 3.33  87
2019 06 17 02  21 19 47.694   +10 30 40.07  5.0456 5.5729 116.5 22.7 3.35  87
2019 06 17 03  21 19 47.238   +10 30 51.81  5.0451 5.5729 116.5 22.7 3.38  87
2019 06 17 04  21 19 46.780   +10 31 03.54  5.0446 5.5729 116.5 22.7 3.40  87
2019 06 17 05  21 19 46.322   +10 31 15.26  5.0441 5.5729 116.6 22.7 3.42  87
2019 06 17 06  21 19 45.862   +10 31 26.98  5.0435 5.5729 116.6 22.7 3.44  87
2019 06 17 07  21 19 45.401   +10 31 38.69  5.0430 5.5729 116.6 22.7 3.46  87
2019 06 17 08  21 19 44.939   +10 31 50.39  5.0425 5.5729 116.7 22.7 3.48  87
2019 06 17 09  21 19 44.476   +10 32 02.09  5.0420 5.5728 116.7 22.7 3.50  87
2019 06 17 10  21 19 44.011   +10 32 13.78  5.0415 5.5728 116.7 22.7 3.52  87
2019 06 17 11  21 19 43.546   +10 32 25.46  5.0409 5.5728 116.8 22.7 3.55  87
2019 06 17 12  21 19 43.079   +10 32 37.13  5.0404 5.5728 116.8 22.7 3.57  87
2019 06 17 13  21 19 42.612   +10 32 48.79  5.0399 5.5728 116.8 22.7 3.59  87
2019 06 17 14  21 19 42.143   +10 33 00.45  5.0394 5.5728 116.9 22.7 3.61  87
2019 06 17 15  21 19 41.673   +10 33 12.10  5.0389 5.5728 116.9 22.7 3.63  87
2019 06 17 16  21 19 41.202   +10 33 23.75  5.0383 5.5728 116.9 22.7 3.65  87
2019 06 17 17  21 19 40.730   +10 33 35.38  5.0378 5.5728 117.0 22.7 3.68  87
2019 06 17 18  21 19 40.257   +10 33 47.01  5.0373 5.5727 117.0 22.7 3.70  87